Date String (YYYY-MM-DD hh:mm:ss) UTC,Instrument flags,Ambient pressure (hPa),Sample flow (lpm),Bypass flow (lpm),Sample temperature (°C),Ambient temperature (°C),ASC tube jacket temperature (°C),LED temperature (°C),Box temperature (°C),Sample RH (%),Span deviation,Mass concentration (μg/m³),Mass concentration (μg/m³),Mass concentration (μg/m³)
DateTimeUTC,F1_M11,P_M11,Q1_M11,Q2_M11,T1_M11,T2_M11,T3_M11,T4_M11,T5_M11,U1_M11,ZSPAN_M11,X0_M11,X2_M11,X1_M11
2023-02-17 21:00:00,,0826.2,5.01,0.00,26.3,25.1,00.0,35.0,28.1,09.2,0000.0,0009.26,0003.53,0003.16
2023-02-17 21:01:00,,0826.2,5.00,0.00,26.3,25.1,00.0,35.0,28.2,09.1,0000.0,0009.31,0003.51,0003.15
2023-02-17 21:02:00,,0826.2,5.02,0.00,26.3,25.1,00.0,35.0,28.1,09.2,0000.0,0009.24,0003.49,0003.15
2023-02-17 21:03:00,,0826.2,4.99,0.00,26.3,25.1,00.0,35.0,28.2,09.5,0000.0,0009.33,0003.52,0003.14
2023-02-17 21:04:00,,0826.2,4.97,0.00,26.3,25.2,00.0,35.0,28.2,09.6,0000.0,0008.59,0003.50,0003.14
2023-02-17 21:05:00,,0826.2,4.98,0.00,26.3,25.2,00.0,35.0,28.2,09.5,0000.0,0008.23,0003.48,0003.14
2023-02-17 21:06:00,,0826.2,5.02,0.00,26.3,25.2,00.0,35.0,28.2,09.5,0000.0,0008.11,0003.48,0003.14
2023-02-17 21:07:00,,0826.2,4.98,0.00,26.4,25.2,00.0,35.0,28.2,09.5,0000.0,0008.02,0003.50,0003.15
2023-02-17 21:08:00,,0826.2,4.98,0.00,26.4,25.2,00.0,35.1,28.2,09.1,0000.0,0008.32,0003.50,0003.16
2023-02-17 21:09:00,,0826.1,5.01,0.00,26.4,25.2,00.0,35.1,28.2,09.0,0000.0,0008.23,0003.54,0003.18
2023-02-17 21:10:00,,0826.2,4.99,0.00,26.4,25.2,00.0,35.1,28.2,09.3,0000.0,0007.61,0003.53,0003.19
2023-02-17 21:11:00,,0826.2,4.98,0.00,26.4,25.2,00.0,35.1,28.3,09.6,0000.0,0007.47,0003.53,0003.19
2023-02-17 21:12:00,,0826.2,4.98,0.00,26.4,25.2,00.0,35.1,28.3,09.8,0000.0,0007.42,0003.55,0003.20
2023-02-17 21:13:00,,0826.1,4.98,0.00,26.4,25.2,00.0,35.1,28.3,09.8,0000.0,0007.78,0003.59,0003.21
2023-02-17 21:14:00,,0826.0,4.98,0.00,26.4,25.2,00.0,35.1,28.3,09.6,0000.0,0007.68,0003.58,0003.24
2023-02-17 21:15:00,,0826.1,4.98,0.00,26.4,25.2,00.0,35.1,28.3,09.2,0000.0,0007.73,0003.63,0003.26
2023-02-17 21:16:00,,0826.0,4.99,0.00,26.4,25.2,00.0,35.1,28.2,08.9,0000.0,0007.77,0003.66,0003.28
2023-02-17 21:17:00,,0826.0,4.98,0.00,26.4,25.2,00.0,35.1,28.2,09.3,0000.0,0007.93,0003.68,0003.31
2023-02-17 21:18:00,,0826.0,4.99,0.00,26.4,25.2,00.0,35.1,28.3,09.9,0000.0,0007.98,0003.69,0003.34
2023-02-17 21:19:00,,0826.0,5.00,0.00,26.4,25.2,00.0,35.2,28.3,10.1,0000.0,0007.89,0003.72,0003.35
2023-02-17 21:20:00,,0825.9,5.02,0.00,26.4,25.2,00.0,35.2,28.3,09.9,0000.0,0007.63,0003.74,0003.36
2023-02-17 21:21:00,,0826.0,5.00,0.00,26.4,25.2,00.0,35.2,28.3,09.8,0000.0,0007.74,0003.78,0003.37
2023-02-17 21:22:00,,0825.9,5.00,0.00,26.4,25.1,00.0,35.2,28.3,09.4,0000.0,0007.78,0003.80,0003.38
2023-02-17 21:23:00,,0826.0,5.02,0.00,26.4,24.9,00.0,35.2,28.2,09.2,0000.0,0007.72,0003.79,0003.39
2023-02-17 21:24:00,,0826.0,4.99,0.00,26.4,24.9,00.0,35.2,28.2,09.4,0000.0,0007.39,0003.77,0003.38
2023-02-17 21:25:00,,0826.0,5.02,0.00,26.4,24.9,00.0,35.2,28.2,10.1,0000.0,0007.35,0003.77,0003.37
2023-02-17 21:26:00,,0826.0,4.99,0.00,26.4,24.9,00.0,35.2,28.2,09.7,0000.0,0007.26,0003.74,0003.36
2023-02-17 21:27:00,,0826.1,5.01,0.00,26.4,25.0,00.0,35.2,28.2,10.0,0000.0,0007.36,0003.75,0003.36
2023-02-17 21:28:00,,0826.0,4.98,0.00,26.4,25.0,00.0,35.2,28.2,09.9,0000.0,0007.54,0003.76,0003.36
2023-02-17 21:29:00,,0826.1,4.98,0.00,26.4,24.9,00.0,35.2,28.2,09.9,0000.0,0007.48,0003.77,0003.37
2023-02-17 21:30:00,,0826.2,5.01,0.00,26.4,24.9,00.0,35.2,28.2,09.4,0000.0,0006.56,0003.76,0003.39
2023-02-17 21:31:00,,0826.2,5.00,0.00,26.4,24.9,00.0,35.2,28.2,09.2,0000.0,0006.37,0003.75,0003.41
2023-02-17 21:32:00,,0826.2,5.02,0.00,26.3,24.8,00.0,35.2,28.2,09.1,0000.0,0006.59,0003.73,0003.41
2023-02-17 21:33:00,,0826.2,4.99,0.00,26.3,24.8,00.0,35.2,28.1,09.4,0000.0,0006.73,0003.73,0003.42
2023-02-17 21:34:00,,0826.2,4.99,0.00,26.3,24.8,00.0,35.2,28.1,09.5,0000.0,0006.84,0003.74,0003.43
2023-02-17 21:35:00,,0826.2,4.99,0.00,26.3,24.8,00.0,35.2,28.1,09.5,0000.0,0007.29,0003.76,0003.44
2023-02-17 21:36:00,,0826.0,4.99,0.00,26.3,24.8,00.0,35.2,28.1,09.6,0000.0,0007.32,0003.75,0003.45
2023-02-17 21:37:00,,0826.0,4.99,0.00,26.3,24.8,00.0,35.2,28.1,09.9,0000.0,0007.35,0003.77,0003.46
2023-02-17 21:38:00,,0826.0,5.01,0.00,26.3,24.8,00.0,35.1,28.1,09.8,0000.0,0007.42,0003.80,0003.47
2023-02-17 21:39:00,,0826.0,4.99,0.00,26.3,24.8,00.0,35.1,28.1,09.8,0000.0,0007.13,0003.82,0003.47
2023-02-17 21:40:00,,0826.0,5.01,0.00,26.3,24.8,00.0,35.1,28.1,09.8,0000.0,0007.26,0003.84,0003.47
2023-02-17 21:41:00,,0826.0,4.98,0.00,26.3,24.9,00.0,35.1,28.1,09.7,0000.0,0007.44,0003.85,0003.46
2023-02-17 21:42:00,,0826.0,5.01,0.00,26.3,24.9,00.0,35.1,28.0,09.3,0000.0,0007.47,0003.85,0003.46
2023-02-17 21:43:00,,0826.2,4.97,0.00,26.3,24.9,00.0,35.1,28.1,09.0,0000.0,0007.51,0003.89,0003.47
2023-02-17 21:44:00,,0826.2,4.99,0.00,26.3,24.9,00.0,35.1,28.1,09.9,0000.0,0007.45,0003.91,0003.48
2023-02-17 21:45:00,,0826.2,5.01,0.00,26.3,25.0,00.0,35.1,28.1,10.4,0000.0,0008.38,0003.93,0003.49
2023-02-17 21:46:00,,0826.2,4.98,0.00,26.3,25.0,00.0,35.1,28.1,10.9,0000.0,0008.29,0003.94,0003.49
2023-02-17 21:47:00,,0826.1,4.99,0.00,26.3,25.0,00.0,35.1,28.1,10.4,0000.0,0008.79,0003.95,0003.49
2023-02-17 21:48:00,,0826.0,5.01,0.00,26.3,25.0,00.0,35.1,28.1,10.1,0000.0,0008.98,0003.97,0003.50
2023-02-17 21:49:00,,0826.0,4.97,0.00,26.3,25.0,00.0,35.1,28.1,09.6,0000.0,0009.05,0003.94,0003.51
2023-02-17 21:50:00,,0826.0,5.00,0.00,26.3,24.9,00.0,35.1,28.1,09.2,0000.0,0009.10,0003.95,0003.53
2023-02-17 21:51:00,,0826.0,5.00,0.00,26.3,24.9,00.0,35.1,28.1,09.3,0000.0,0009.09,0003.96,0003.55
2023-02-17 21:52:00,,0826.1,4.99,0.00,26.3,24.9,00.0,35.1,28.1,08.9,0000.0,0009.29,0003.99,0003.59
2023-02-17 21:53:00,,0826.1,5.00,0.00,26.3,24.9,00.0,35.1,28.1,08.9,0000.0,0009.74,0004.00,0003.62
2023-02-17 21:54:00,,0826.2,4.99,0.00,26.3,24.9,00.0,35.1,28.1,09.3,0000.0,0009.98,0004.00,0003.64
2023-02-17 21:55:00,,0826.2,5.01,0.00,26.3,24.9,00.0,35.1,28.1,09.4,0000.0,0009.97,0004.03,0003.66
2023-02-17 21:56:00,,0826.1,5.01,0.00,26.3,24.9,00.0,35.1,28.1,09.0,0000.0,0009.07,0004.06,0003.70
2023-02-17 21:57:00,,0826.0,5.01,0.00,26.3,24.9,00.0,35.1,28.0,09.0,0000.0,0009.14,0004.09,0003.74
2023-02-17 21:58:00,,0826.0,4.99,0.00,26.3,24.9,00.0,35.1,28.0,08.9,0000.0,0008.91,0004.15,0003.79
2023-02-17 21:59:00,,0826.0,5.01,0.00,26.3,24.9,00.0,35.1,28.0,08.8,0000.0,0008.84,0004.20,0003.84
